Wind_Speed
41 37 39 40 49 48 45 44 38 36 30 34 35 33 33 36 38 40 39 40 42 44 47 48 49 45 45 46 48 46 48 51 54 58 61 62 62 64
35 38 36 33 36 46 42 45 45 41 32 34 35 33 34 38 40 40 38 40 42 43 45 47 44 43 45 48 47 47 50 53 57 61 62 63 63 67
35 37 36 38 39 43 38 45 51 40 28 29 30 32 35 37 38 38 40 41 43 44 46 43 44 45 49 47 47 49 52 55 60 63 65 64 64 67
36 37 43 44 46 43 40 48 49 26 25 28 34 36 36 37 38 39 41 42 42 44 42 44 45 48 47 48 49 51 54 57 61 64 66 64 64 68
34 35 39 40 43 44 48 46 28 24 26 32 34 39 41 41 41 42 40 41 42 44 43 44 46 47 47 49 50 52 55 58 62 64 65 62 64 69
39 38 36 27 31 19 17 15 15 23 29 34 37 36 38 41 41 42 41 41 41 42 43 43 46 46 47 50 53 54 57 60 63 64 64 63 66 69
31 22 17 31 14 22 24 22 22 28 33 36 37 41 42 42 41 41 41 40 41 42 43 42 45 47 49 53 56 57 60 64 64 64 64 64 65 70
34 32 29 31 27 22 29 29 26 30 36 36 39 43 43 42 41 41 41 39 40 42 43 42 45 48 51 53 55 58 62 64 64 63 64 65 67 71
30 26 21 20 22 22 24 26 33 34 32 36 39 42 41 42 41 46 40 38 40 41 42 43 44 50 52 53 55 58 61 63 62 62 63 65 68 73
26 24 22 21 23 24 27 32 32 31 33 36 36 40 39 39 44 50 39 37 40 42 41 42 44 49 52 53 55 59 61 61 60 61 63 66 68 75
26 25 24 24 25 26 28 30 31 33 38 43 42 43 44 45 42 45 34 37 38 41 41 41 41 47 54 55 56 58 60 60 60 61 63 66 69 74
28 27 28 27 26 28 31 33 37 38 40 41 41 42 42 42 36 33 35 38 39 41 39 41 43 46 50 51 55 60 59 59 60 61 63 66 70 73
31 31 31 30 29 30 31 35 37 35 35 38 40 40 40 36 37 38 37 39 40 42 42 42 45 50 47 48 56 59 59 58 58 59 62 65 70 74
35 36 35 34 33 33 31 33 36 38 37 37 36 37 38 36 41 43 39 40 42 43 44 45 46 48 49 54 57 57 59 58 58 59 62 65 68 74
41 40 39 37 37 35 35 35 36 37 36 35 37 40 39 40 40 40 40 41 41 42 44 48 51 50 52 56 58 58 59 59 60 59 61 64 68 71
41 42 45 41 39 40 37 36 35 37 39 41 40 42 43 44 43 39 41 41 39 41 46 51 54 48 50 55 58 58 62 62 59 59 59 60 67 73
44 46 45 43 41 40 38 37 38 40 43 45 46 42 44 46 45 41 42 40 40 44 48 52 46 47 50 52 55 57 61 59 59 59 58 60 66 73
52 52 47 47 46 47 46 44 43 43 46 49 45 44 44 49 45 44 44 41 41 42 46 44 46 47 50 52 55 57 57 59 60 59 59 62 65 72
58 57 55 54 51 51 51 52 49 49 50 52 49 41 42 46 44 43 43 40 40 41 44 45 46 46 47 51 54 56 55 59 61 59 59 62 67 72
65 63 61 59 58 57 57 54 54 53 52 54 53 47 44 44 49 48 46 42 42 42 44 46 45 45 47 48 52 56 58 60 61 57 57 60 66 73
68 67 66 65 64 64 62 59 57 57 56 56 55 55 49 47 52 49 45 39 39 43 40 43 42 45 46 48 53 56 57 59 58 56 58 61 65 70
71 70 70 70 70 69 67 65 63 63 60 58 55 56 52 52 55 53 44 35 38 40 41 40 42 45 46 47 51 53 55 55 54 56 60 67 73 76
74 73 72 71 71 70 69 70 65 65 64 58 56 56 52 54 51 49 41 36 37 40 40 39 42 44 45 47 49 50 52 53 51 51 56 63 68 73
Wind_Direction
287 289 297 288 286 283 292 291 283 283 295 298 300 305 306 308 313 313 313 314 313 313 313 314 315 317 318 317 316 316 318 318 321 323 324 326 326 324
281 287 288 289 296 293 293 283 279 275 289 298 300 304 305 308 311 310 310 310 310 312 313 313 315 317 319 318 314 316 318 321 321 325 327 326 326 329
278 285 285 292 295 301 294 282 284 277 290 296 300 302 305 308 309 308 309 310 311 314 313 315 316 315 319 316 314 317 319 320 322 326 326 326 328 330
286 288 289 289 293 286 284 280 281 270 291 298 296 298 302 307 306 308 311 311 311 310 314 315 316 318 318 317 316 317 320 322 323 325 326 328 330 328
289 299 293 292 290 280 284 280 269 288 285 291 297 299 303 307 306 308 309 308 309 310 312 314 317 319 319 319 319 322 322 322 325 325 327 329 327 331
298 310 301 305 299 282 280 278 297 295 291 292 296 302 306 304 302 304 303 304 306 311 312 316 318 318 319 322 322 324 323 325 324 326 327 327 328 330
299 289 292 313 306 308 308 317 316 295 290 293 297 302 302 305 300 299 300 302 308 311 311 313 320 320 319 321 322 323 326 325 325 326 326 325 329 330
302 304 295 306 302 306 300 303 301 290 290 295 298 301 304 301 299 295 298 302 305 309 311 313 320 322 320 321 322 325 325 325 325 324 324 326 328 332
296 298 301 296 288 286 285 277 279 284 287 292 300 303 303 298 296 294 293 298 304 310 310 312 318 323 322 321 325 326 325 323 322 323 325 325 330 332
282 283 285 280 280 281 280 279 284 288 292 297 299 307 305 300 299 296 288 298 302 309 310 312 315 320 322 322 324 325 324 322 322 323 325 326 331 332
279 282 280 277 285 285 281 283 279 285 291 296 296 299 300 301 302 298 292 297 304 308 309 312 313 319 320 320 322 323 324 322 323 324 326 328 331 334
274 279 279 280 287 286 288 287 285 289 292 296 298 298 299 305 296 289 294 297 302 306 307 311 311 311 313 318 320 323 323 323 324 325 328 329 331 334
279 278 280 285 283 283 282 282 287 291 294 293 295 299 294 309 302 291 292 297 300 306 307 309 310 312 316 319 321 323 324 323 324 326 328 329 331 332
278 281 282 285 285 287 287 288 287 289 290 291 294 294 299 304 314 293 288 295 300 307 307 308 308 310 316 319 323 325 325 324 324 327 329 330 331 333
277 280 282 282 284 287 285 283 287 289 291 291 294 297 301 309 305 294 287 295 301 307 308 310 308 308 316 320 322 323 326 325 324 327 331 330 331 333
275 268 277 279 280 279 284 284 285 284 285 290 297 299 298 300 300 286 284 291 301 303 307 311 313 311 317 322 323 325 326 327 326 328 331 331 332 335
270 269 272 275 277 279 284 286 285 285 285 286 295 298 302 299 297 282 281 290 297 301 306 311 311 314 318 321 324 328 329 327 326 328 330 333 335 337
271 271 269 271 275 279 280 281 283 284 285 288 293 294 301 304 290 281 281 289 296 301 307 308 312 317 320 325 327 330 329 326 326 328 331 334 337 339
268 269 270 271 272 275 279 282 282 281 281 283 289 294 297 300 285 282 283 291 293 299 303 305 312 318 321 326 329 329 329 327 328 330 332 334 338 342
265 265 266 267 268 271 273 276 278 280 280 280 282 289 294 291 285 280 284 291 295 296 301 303 311 316 321 325 327 327 327 329 331 332 332 335 340 341
265 265 265 266 267 270 272 275 277 279 279 280 280 282 289 284 288 276 279 285 293 297 297 305 311 316 320 323 327 329 326 327 330 331 332 336 338 341
265 266 266 267 268 269 271 274 275 277 277 278 278 280 283 285 286 280 274 283 288 291 296 304 310 315 318 324 327 329 329 330 332 332 336 340 341 344
265 265 266 266 267 268 269 273 273 273 274 274 275 279 280 276 286 277 270 278 282 289 293 300 308 312 316 322 328 329 330 332 333 333 337 340 342 344
Height
5806 5805 5802 5802 5800 5799 5799 5797 5794 5792 5790 5785 5780 5778 5774 5770 5765 5759 5755 5749 5745 5739 5734 5728 5721 5713 5706 5699 5692 5683 5676 5667 5658 5648 5637 5626 5616 5606
5797 5795 5794 5790 5789 5789 5787 5788 5785 5783 5781 5777 5773 5771 5766 5762 5757 5752 5746 5741 5735 5730 5725 5719 5712 5705 5697 5690 5683 5674 5666 5657 5648 5637 5627 5617 5605 5593
5788 5786 5784 5782 5781 5779 5777 5778 5775 5777 5773 5770 5767 5763 5759 5754 5749 5744 5739 5733 5728 5723 5717 5711 5704 5697 5689 5681 5674 5666 5656 5648 5638 5628 5618 5607 5594 5582
5777 5776 5775 5773 5770 5769 5767 5766 5767 5768 5766 5763 5759 5755 5750 5745 5741 5736 5731 5726 5720 5715 5709 5703 5696 5688 5680 5673 5665 5656 5647 5639 5629 5618 5607 5597 5584 5571
5768 5766 5764 5761 5760 5760 5757 5757 5760 5759 5757 5754 5751 5747 5742 5737 5733 5728 5723 5718 5713 5707 5700 5693 5687 5679 5672 5665 5657 5648 5638 5629 5619 5609 5598 5587 5575 5560
5757 5755 5752 5750 5748 5750 5753 5753 5752 5751 5749 5746 5741 5738 5733 5729 5724 5719 5715 5709 5704 5698 5691 5684 5678 5671 5664 5657 5649 5640 5630 5619 5609 5599 5589 5578 5565 5552
5750 5749 5746 5746 5748 5749 5749 5747 5747 5744 5741 5738 5733 5729 5725 5721 5716 5711 5707 5701 5695 5689 5683 5676 5669 5663 5656 5648 5640 5631 5620 5610 5599 5590 5580 5569 5556 5543
5742 5741 5740 5740 5740 5740 5740 5738 5737 5736 5733 5728 5724 5721 5716 5712 5707 5703 5698 5693 5688 5681 5674 5668 5661 5655 5648 5640 5631 5622 5612 5601 5590 5580 5570 5558 5547 5533
5734 5733 5732 5731 5731 5731 5729 5728 5727 5726 5723 5720 5716 5712 5706 5703 5698 5694 5688 5684 5680 5672 5665 5659 5652 5645 5639 5630 5622 5612 5603 5593 5582 5572 5561 5549 5536 5522
5726 5725 5723 5724 5724 5724 5722 5721 5720 5718 5715 5712 5708 5704 5698 5694 5690 5684 5679 5676 5671 5665 5658 5652 5645 5636 5628 5620 5613 5603 5594 5584 5574 5563 5551 5539 5527 5513
5717 5717 5716 5717 5716 5716 5715 5713 5711 5709 5706 5704 5700 5695 5690 5686 5681 5675 5671 5668 5661 5656 5651 5645 5639 5631 5620 5611 5603 5595 5585 5575 5565 5554 5541 5529 5518 5505
5709 5707 5708 5708 5708 5709 5707 5704 5703 5700 5697 5693 5690 5686 5681 5677 5671 5667 5664 5659 5653 5648 5643 5638 5631 5627 5621 5605 5595 5587 5577 5566 5556 5545 5532 5519 5507 5495
5699 5698 5697 5698 5698 5698 5697 5695 5692 5689 5685 5683 5680 5676 5673 5668 5664 5658 5654 5649 5644 5638 5634 5630 5623 5616 5608 5602 5592 5580 5569 5560 5549 5539 5525 5511 5497 5483
5688 5688 5687 5687 5687 5688 5687 5684 5680 5677 5674 5672 5670 5667 5662 5658 5653 5648 5644 5640 5635 5630 5625 5620 5614 5607 5599 5592 5583 5575 5563 5551 5541 5531 5518 5505 5491 5474
5677 5677 5676 5676 5677 5676 5675 5672 5669 5667 5665 5663 5660 5656 5652 5648 5644 5638 5635 5630 5626 5621 5616 5611 5605 5597 5590 5581 5573 5564 5557 5546 5533 5522 5511 5495 5484 5472
5665 5664 5664 5666 5665 5665 5663 5662 5659 5657 5656 5653 5650 5646 5642 5639 5633 5628 5625 5621 5617 5612 5607 5602 5596 5589 5581 5571 5562 5555 5543 5535 5526 5513 5503 5490 5475 5459
5653 5655 5654 5654 5653 5652 5652 5650 5649 5648 5645 5642 5639 5636 5632 5628 5622 5618 5614 5611 5608 5603 5598 5593 5587 5579 5571 5564 5554 5544 5536 5525 5515 5505 5496 5485 5468 5453
5638 5640 5641 5642 5641 5639 5638 5638 5637 5637 5634 5630 5629 5626 5622 5617 5612 5608 5605 5602 5599 5595 5590 5586 5580 5572 5562 5553 5546 5538 5527 5518 5508 5497 5485 5475 5464 5447
5624 5626 5628 5628 5628 5627 5625 5625 5625 5623 5621 5620 5618 5615 5611 5607 5603 5599 5596 5593 5590 5586 5583 5579 5572 5566 5557 5548 5536 5528 5522 5511 5502 5491 5479 5465 5452 5441
5607 5609 5611 5612 5612 5611 5611 5611 5609 5609 5609 5607 5606 5604 5600 5597 5593 5590 5587 5585 5581 5578 5574 5570 5564 5558 5550 5541 5532 5520 5511 5503 5493 5484 5476 5463 5447 5431
5587 5590 5592 5594 5595 5594 5594 5593 5593 5594 5593 5593 5592 5591 5588 5585 5583 5578 5576 5575 5572 5569 5566 5561 5555 5550 5542 5533 5524 5514 5502 5491 5481 5474 5465 5456 5446 5436
5567 5570 5572 5575 5577 5579 5579 5577 5577 5578 5578 5578 5578 5576 5576 5574 5571 5568 5565 5564 5561 5559 5557 5552 5547 5542 5535 5526 5517 5509 5500 5489 5475 5462 5451 5436 5422 5412
5547 5550 5552 5555 5557 5560 5563 5561 5560 5561 5562 5563 5563 5562 5562 5561 5559 5557 5554 5553 5551 5550 5547 5543 5539 5535 5528 5519 5510 5503 5495 5486 5477 5467 5453 5439 5421 5404